Showing default

BRO-12, 59108

Orbit data source: Space-Track

BRO-12, 59108 is a payload satellite owned by Unseen Labs (FR) in SSO that was launched on Mon, 04 Mar 2024 UTC via an FALCON 9 launch vehicle from the Air Force Western Test Range (AFWTR). Payload-class satellites include a variety of spacecraft equipped with specific instruments for various scientific and technological missions. These include communications satellites like Starlink; space stations such as the ISS; scientific satellites like the Hubble; Earth observation satellites from companies like Planet Labs, Umbra, and HawkEye 360; GPS; miniature CubeSats for education and research; and military/defense satellites.

Loading next visibility...
Identifier
59108, 2024-043L
Orbit
SSO
Country
Flag of FRFR
Related business
Manufacturer
GOMSpace
Mission
Operational Commercial Sigint
Bus & Motor
CUBESAT 8U, Unknown motor
Mass
15 kg wet, ~15 kg dry
Launch date (UTC)
2024-03-04 (2 years ago)
Launch vehicle
FALCON 9
Launch site
Air Force Western Test Range (AFWTR)
Object type
Payload
Rocket body
Debris
Shape & HBR
Box, 0.2 m
Radar Cross Section
0.100 m², Medium (>0.1 m² and < 1m²)

Expand to show TLE details & history
Last TLE update: 4 hours ago

TLE from 4 hours ago
0 BRO-12
1 59108U 24043L   25298.31716390  .00003075  00000-0  28015-3 0  9996
2 59108  97.8223  64.3059 0009756  61.6965 298.5239 14.95863201 89513
Epoch: 2025-10-25T07:36Z
TLE epoch observation values (Epoch: 2025-10-25T07:36:42.960Z)
Latitude
-0.00005°
Longitude
-83.82254°
Altitude
579.503 km
Speed
7.573 km/s
True Right ascension
04h 17m 13s
True Declination
0° 00' 00"
Sunlit
Object was in full shadow at epoch
Visualization orbit readout
Latitude
Unknown
Longitude
Unknown
Altitude
Unknown
Speed
Unknown
Apparent Right ascension
Unknown
Apparent Declination
Unknown
Sunlit
N/A
Visualization observer readout
Local Sidereal Time
07:21:14
Azimuth
Unknown
Elevation
Unknown
Doppler factor
Unknown
Orbital elements
Apogee altitude
583.496 km
Perigee altitude
569.926 km
Semi-major axis
6,954.848 km
Eccentricity
0.00098
Inclination
97.8223°
RAAN
64.3059°
Arg. of periapsis
61.6965°
True anomaly
298.42562°
Mean anomaly
298.5239°
Eccentric anomaly
298.47476°
Mean motion
3.74207 °/min
Orbital period
96.2 mins
BSTAR
0.00028015
Loading maneuver chart data...
Computing Atmospheric mass density...
Loading historical data...
Loading historical data...
Loading historical data...
Loading historical data...
Loading historical data...
Loading historical data...
Loading historical data...

Documentation

Showing up to 5 results
|